Lamoni, IA

1:20 PM CDT on May 25, 2017 (GMT -0500)
Lamoni Municipal

Weather History for KLWD - January, 2014

Change the Weather History Date:

Saturday, January 11, 2014

  Actual Average Record
Temperature  
Mean Temperature 33 °F 24 °F  
Max Temperature 38 °F 33 °F 53 °F (1980)
Min Temperature 28 °F 15 °F -14 °F (1977)
Degree Days  
Heating Degree Days 32 41  
Month to date heating degree days 580 451  
Since 1 July heating degree days 3126 2880  
Cooling Degree Days 0 0  
Month to date cooling degree days 0 0  
Year to date cooling degree days 0 0  
Moisture  
Dew Point 27 °F    
Average Humidity 78    
Maximum Humidity 92    
Minimum Humidity 64    
Precipitation  
Precipitation 0.00 in 0.01 in 0.23 in (1963)
Month to date precipitation 0.23 0.22  
Sea Level Pressure  
Sea Level Pressure 29.73 in    
Wind  
Wind Speed 11 mph (West)    
Max Wind Speed 20 mph    
Max Gust Speed 24 mph    
Visibility 8 miles    
Events      
T = Trace of Precipitation, MM = Missing Value Source: NWS Daily Summary

Daily Weather History Graph

Daily Weather History Graph

Search for Another Location

Airport or City:

Trip Planner

Search our weather history database for the weather conditions in past years. The results will help you decide how hot, cold, wet, or windy it might be!

Date:

Astronomy

Jan. 11, 2014 Rise Set
Actual Time 7:38 AM CST 5:08 PM CST
Civil Twilight 7:08 AM CST 5:39 PM CST
Nautical Twilight 6:34 AM CST 6:13 PM CST
Astronomical Twilight 6:01 AM CST 6:45 PM CST
Moon 1:53 PM CST (1/11) 3:43 AM CST (1/11)
Length of Visible Light 10h 30m
Length of Day
9h 30m
Waxing Gibbous, 83% of the Moon is Illuminated
Jan 11
Waxing Gibbous
Jan 15
Full
Jan 23
Last Quarter
Jan 30
New
Feb 6
First Quarter

Hourly Weather History & Observations

Time (CST) Temp. Windchill Dew Point Humidity Pressure Visibility Wind Dir Wind Speed Gust Speed Precip Events Conditions
12:39 AM 33.1 °F 25.5 °F 30.9 °F 92% 29.57 in 6.0 mi West 9.2 mph - N/A   Overcast
12:53 AM 33.1 °F 24.4 °F 30.0 °F 89% 29.60 in 7.0 mi WNW 11.5 mph - N/A   Overcast
1:53 AM 33.1 °F 23.4 °F 30.0 °F 89% 29.61 in 7.0 mi WNW 13.8 mph - N/A   Overcast
2:00 AM 33.1 °F 23.4 °F 30.0 °F 89% 29.58 in 7.0 mi WNW 13.8 mph - N/A   Overcast
2:53 AM 33.1 °F 22.6 °F 30.0 °F 89% 29.63 in 7.0 mi WNW 16.1 mph - N/A   Overcast
3:53 AM 33.1 °F 24.9 °F 30.0 °F 89% 29.64 in 8.0 mi WNW 10.4 mph - N/A   Overcast
4:53 AM 30.9 °F 22.2 °F 28.9 °F 92% 29.65 in 6.0 mi West 10.4 mph - N/A   Mostly Cloudy
5:14 AM 30.0 °F 21.7 °F 28.0 °F 92% 29.62 in 6.0 mi West 9.2 mph - N/A   Scattered Clouds
5:46 AM 30.0 °F 21.1 °F 28.0 °F 92% 29.64 in 4.0 mi West 10.4 mph - N/A   Mostly Cloudy
5:53 AM 30.0 °F 21.7 °F 28.0 °F 92% 29.68 in 4.0 mi West 9.2 mph - N/A   Mostly Cloudy
6:34 AM 28.9 °F 19.2 °F 27.0 °F 92% 29.65 in 4.0 mi WSW 11.5 mph - N/A   Scattered Clouds
6:53 AM 28.9 °F 19.8 °F 26.1 °F 89% 29.68 in 5.0 mi WSW 10.4 mph - N/A   Clear
7:53 AM 28.0 °F 17.5 °F 25.0 °F 88% 29.70 in 6.0 mi WSW 12.7 mph - N/A   Clear
8:53 AM 30.0 °F 19.1 °F 24.1 °F 79% 29.71 in 10.0 mi West 15.0 mph - N/A   Clear
9:53 AM 30.9 °F 21.7 °F 25.0 °F 79% 29.74 in 10.0 mi West 11.5 mph - N/A   Clear
10:53 AM 34.0 °F 25.5 °F 26.1 °F 73% 29.75 in 10.0 mi WNW 11.5 mph - N/A   Clear
11:53 AM 36.0 °F 27.1 °F 26.1 °F 67% 29.75 in 10.0 mi WNW 13.8 mph - N/A   Clear
12:53 PM 37.0 °F 27.7 °F 27.0 °F 67% 29.75 in 10.0 mi WNW 16.1 mph - N/A   Clear
1:53 PM 37.0 °F 27.4 °F 28.0 °F 70% 29.76 in 10.0 mi WNW 17.3 mph - N/A   Clear
2:53 PM 37.0 °F 28.1 °F 28.9 °F 73% 29.79 in 10.0 mi WNW 15.0 mph - N/A   Clear
3:53 PM 37.0 °F 28.1 °F 28.9 °F 73% 29.82 in 10.0 mi WNW 15.0 mph - N/A   Clear
4:53 PM 34.0 °F 26.6 °F 28.0 °F 79% 29.84 in 10.0 mi West 9.2 mph - N/A   Clear
5:53 PM 32.0 °F 24.8 °F 27.0 °F 82% 29.86 in 10.0 mi WNW 8.1 mph - N/A   Clear
6:53 PM 30.9 °F 24.3 °F 27.0 °F 85% 29.87 in 10.0 mi West 6.9 mph - N/A   Clear
7:53 PM 30.0 °F 24.1 °F 26.1 °F 85% 29.89 in 10.0 mi SW 5.8 mph - N/A   Clear
8:53 PM 30.0 °F 24.1 °F 26.1 °F 85% 29.88 in 10.0 mi SSW 5.8 mph - N/A   Clear
9:53 PM 28.0 °F 19.3 °F 25.0 °F 88% 29.88 in 10.0 mi SSW 9.2 mph - N/A   Clear
10:53 PM 28.9 °F 19.8 °F 26.1 °F 89% 29.88 in 10.0 mi South 10.4 mph - N/A   Clear
11:53 PM 30.0 °F 21.7 °F 26.1 °F 85% 29.85 in 10.0 mi South 9.2 mph - N/A   Clear